Location: *
(55.6049°S, 142.1985°W)
Time: 16:11:03
(UTC+00:00)

Cosmos 1072 Rocket - Pass Details

Date: 12 May 2021
Orbit: 949 x 1007 km, 82.9° (Epoch: 18 June)

Event Time Altitude Azimuth Distance (km) Brightness Sun altitude
Exits shadow 14:11:44 - 347° (NNW) 3,235 7.1 -25.3°
Reaches altitude 10° 14:12:56 10° 346° (NNW) 2,793 6.7 -25.2°
Maximum altitude 14:19:23 81° 259° (WSW) 1,032 4.4 -24.3°
Drops below altitude 10° 14:25:51 10° 170° (S) 2,793 7.0 -23.3°
Sets 14:28:23 0° 168° (SSE) 3,740 7.7 -23.0°
